Regional Weather Roundup
Issued by NWS

Home | Current Version | Previous Version | Graphics & Text | Print | Product List | Glossary On
Versions: 1 2 3 4 5 6 7 8 9 10 11 12 13 14 15 16 17 18 19 20 21 22 23 24 25 26 27 28 29 30 31 32 33 34 35 36 37 38 39 40 41 42 43 44 45 46 47 48 49 50
000
ASUS45 KABQ 261010
RWRNM
NEW MEXICO REGIONAL WEATHER ROUNDUP
NATIONAL WEATHER SERVICE ALBUQUERQUE NM
400 AM MDT SUN MAR 26 2017

NOTE: "FAIR" MEANS FEW OR NO CLOUDS BELOW 12,000 FEET AGL WITH NO
       SIGNIFICANT WEATHER OR OBSTRUCTIONS TO VISION.

      THIS PRODUCT IS RELEASED AS TWO VERSIONS.  ONE VERSION NEAR
      THE TOP OF THE HOUR CONTAINING PRELIMINARY DATA FROM ALBUQUERQUE
      AND OTHER STATIONS.  A FINAL VERSION WITH ADDITIONAL DATA IS
      ISSUED ABOUT 10 MINUTES AFTER THE HOUR.

NMZ501-503-504-510>518-261100-
NORTHWEST PLATEAU/NORTHCENTRAL MOUNTAINS

CITY           SKY/WX    TMP DP  RH WIND       PRES   REMARKS
FARMINGTON     FAIR      40  38  93 CALM      29.90F
LOS ALAMOS     CLOUDY    40  28  62 SW5       29.91F
SANTA FE       FAIR      40  32  73 W6        29.90F
TAOS             N/A     36  28  75 SW12      29.89S WCI  27
ANGEL FIRE     CLOUDY    33  28  83 SW10G22   29.85F WCI  24

$$
NMZ402-403-502-505>509-261100-
WESTCENTRAL MOUNTAINS/SOUTHWEST MOUNTAINS

CITY           SKY/WX    TMP DP  RH WIND       PRES   REMARKS
GALLUP         FAIR      35  31  85 S8        29.97F WCI  29
GRANTS         FAIR      36  30  79 NW7       29.98F WCI  30
SILVER CITY    FAIR      42  26  53 NW6       29.96S

$$
NMZ407-409-411-412-261100-
SOUTHERN DESERTS

CITY           SKY/WX    TMP DP  RH WIND       PRES   REMARKS
DEMING         FAIR      50  27  40 SW9       29.92F
LAS CRUCES     FAIR      55  24  30 W8        29.93S
HOLLOMAN AFB   FAIR      55  19  24 N7        29.91F
ALAMOGORDO     FAIR      59  19  21 N9        29.89F
T OR C         FAIR      51  24  34 N7        29.91F

$$
NMZ519>523-261100-
CENTRAL VALLEYS/CENTRAL HIGHLANDS

CITY           SKY/WX    TMP DP  RH WIND       PRES   REMARKS
ALBUQUERQUE    FAIR      41  29  62 E6        29.93F
MORIARTY ARPT  FAIR      43  29  57 W10       29.92F
CLINES CORNERS FAIR      35  27  72 W16       29.90F WCI  25
BELEN          FAIR      40  27  60 S6        29.94F
SOCORRO        FAIR      46  29  51 N3        29.93F

$$
NMZ524>526-539-540-261100-
SOUTHCENTRAL MOUNTAINS

CITY           SKY/WX    TMP DP  RH WIND       PRES   REMARKS
RUIDOSO        FAIR      43  23  45 NW15G23   29.93F

$$
NMZ527>531-261100-
NORTHEAST HIGHLANDS/NORTHEAST PLAINS

CITY           SKY/WX    TMP DP  RH WIND       PRES   REMARKS
LAS VEGAS      FAIR      38  28  67 SW16      29.82S WCI  29
RATON          FAIR      35  28  75 N7        29.73F WCI  29
CLAYTON        FAIR      41  32  70 W13       29.72F

$$
NMZ532>537-261100-
EASTCENTRAL PLAINS

CITY           SKY/WX    TMP DP  RH WIND       PRES   REMARKS
TUCUMCARI      FAIR      57  29  34 W16       29.74S
CANNON AFB     FAIR      51  26  37 SW9       29.80F
CLOVIS AIRPORT FAIR      48  25  40 SW10      29.80F

$$
NMZ028-029-538-261100-
SOUTHEAST PLAINS

CITY           SKY/WX    TMP DP  RH WIND       PRES   REMARKS
ROSWELL        FAIR      58  23  26 N13         N/A
ARTESIA        FAIR      52  23  32 NW17      29.82R
CARLSBAD       FAIR      61  19  19 VRB3      29.76F
HOBBS          FAIR      50  27  40 S12       29.81F


$$




USA.gov is the U.S. government's official web portal to all federal, state and local government web resources and services.